Starlink 32075

operational
NORAD ID: 60345 Int'l Des: 2024-136 Owner: SPXS Country: US Constellation: starlink
LEOCIRCULAR

About Starlink 32075

Description loading...

Live Position

Loading 3D Globe...

Upcoming Passes

Altitude History

Altitude vs Time

uPlot chart will show altitude changes over time

Two-Line Element Set

1 60345U 24136S 25261.04162256 .00001841 00000-0 74305-4 0 9993
2 60345 53.1585 157.4359 0001233 72.5683 287.5452 15.30180766 63235
Epoch: Sep 18, 2025 • Age: 19 hours

Current Status

Altitude 478.0 km
Velocity 7.63 km/s
Sub-Earth Point 38.05°N, 5.61°W
Launch Date Aug 2, 2024
Age 1.1 years
Type internet

Technical Details

Classification Payload
Mass 730.00 kg
Dry Mass 700.00 kg
Total Mass 730.00 kg
Length 0.30 m
Diameter 4.10 m
Span 29.00 m
Shape Box + pan
Manufacturer SPXS
Bus Type Starlink V2M
Phase Status In Orbit
Owner/State SPXS/US

Large Constellations

Loading constellations...